Flag for Albania Weather past 2 weeks in Tirana, Albania

55 °F

More clouds than sun.

Feels Like: 55 °F
Forecast: 50 / 62 °F
Wind: 5 mph from North

Location: Tirana Airport

Current Time: Nov 25, 2015 at 2:00:05 PM

Latest Report: Nov 25, 2015 at 1:20 PM

Visibility: N/A

Pressure: 29.59 "Hg

Humidity: 94%

Dew point: 54 °F

Location of TiranaLocation

Historic Weather in Tirana — Graph


Tirana temperature yesterday

Maximum temperature yesterday: 64 °F (at 12:20 PM)
Minimum temperature yesterday: 52 °F (at 12:20 AM)
Average temperature yesterday: 57 °F

Past Weeks' High & Low Weather Summary

High75 °F (Nov 11, 12:50 PM)100% (Nov 14, 8:20 AM)30.36 "Hg (Nov 14, 8:20 AM)
Low43 °F (Nov 16, 5:20 AM)41% (Nov 11, 1:50 PM)29.45 "Hg (Nov 21, 11:20 PM)
Average58 °F79%30.07 "Hg
* Reported Nov 10 12:20 PM — Nov 25 12:20 PM, Tirana, Weather by CustomWeather, © 2015

Note: Actual official high and low records may vary slightly from our data, if they occured in-between our weather recording intervals... More about our weather records


Tirana weather history for previous 24 hours

Time TempWeatherWind HumidityBarometerVisibility
12:20 PM
Wed, Nov 25
55 °FRain. More clouds than sun.3 mph88%29.68 "Hg4 mi
11:50 AM55 °FLight rain. More clouds than sun.3 mph88%29.71 "HgN/A
11:20 AM55 °FRain. More clouds than sun.2 mph94%29.71 "HgN/A
10:50 AM55 °FLight rain. More clouds than sun.2 mph88%29.74 "HgN/A
10:20 AM55 °FLight rain. More clouds than sun.3 mph82%29.77 "HgN/A
9:50 AM55 °FLight rain. More clouds than sun.5 mph82%29.77 "HgN/A
9:20 AM57 °FLight rain. Mostly cloudy.6 mph77%29.80 "HgN/A
8:50 AM55 °FLight rain. Mostly cloudy.6 mph82%29.83 "HgN/A
8:20 AM55 °FLight rain. More clouds than sun.8 mph82%29.83 "HgN/A
7:50 AM55 °FLight rain. Mostly cloudy.12 mph82%29.83 "HgN/A
7:20 AM55 °FLight rain. Mostly cloudy.10 mph82%29.83 "HgN/A
6:50 AM55 °FCloudy.6 mph82%29.83 "HgN/A
6:20 AM55 °FOvercast.8 mph82%29.86 "HgN/A
5:50 AM55 °FPartly cloudy.7 mph82%29.86 "HgN/A
5:20 AM55 °FLight rain. Mostly cloudy.2 mph82%29.86 "HgN/A
4:20 AM55 °FMostly cloudy.3 mph82%29.89 "HgN/A
3:50 AM55 °FMostly cloudy.5 mph82%29.89 "HgN/A
3:20 AM55 °FMostly cloudy.3 mph82%29.89 "HgN/A
2:50 AM55 °FMostly cloudy.7 mph82%29.92 "HgN/A
2:20 AM55 °FLight rain. Mostly cloudy.7 mph82%29.92 "HgN/A
1:20 AM55 °FLight rain. Mostly cloudy.10 mph82%29.95 "HgN/A
12:50 AM55 °FLight rain. Mostly cloudy.10 mph88%29.98 "HgN/A
12:20 AM55 °FRain. Mostly cloudy.12 mph88%30.01 "HgN/A
11:50 PM
Tue, Nov 24
55 °FThunderstorms. Mostly cloudy.12 mph94%30.01 "HgN/A
11:20 PM55 °FRain. Mostly cloudy.8 mph94%30.04 "Hg4 mi
10:50 PM57 °FThunderstorms. Mostly cloudy.10 mph88%30.01 "HgN/A
10:20 PM55 °FLight rain. Partly cloudy.7 mph94%30.01 "Hg5 mi
9:50 PM55 °FLight rain. Partly cloudy.3 mph94%30.01 "Hg5 mi
9:20 PM55 °FLight rain. Partly cloudy.No wind88%30.01 "Hg4 mi
8:50 PM55 °FLight rain. Partly cloudy.No wind94%30.04 "Hg4 mi
8:20 PM55 °FLight rain. Partly cloudy.3 mph94%30.04 "Hg4 mi
7:50 PM55 °FMostly cloudy.6 mph88%30.01 "HgN/A
7:20 PM54 °FPartly cloudy.3 mph94%30.04 "HgN/A
6:50 PM55 °FMostly cloudy.No wind94%30.04 "HgN/A
6:20 PM55 °FPartly cloudy.3 mph94%30.07 "HgN/A
5:50 PM57 °FPassing clouds.6 mph88%30.07 "HgN/A
5:20 PM57 °FPartly cloudy.8 mph88%30.07 "HgN/A
4:50 PM57 °FPartly cloudy.3 mph88%30.07 "HgN/A
4:20 PM61 °FPartly cloudy.3 mph77%30.07 "HgN/A
3:50 PM61 °FBroken clouds.2 mph72%30.07 "HgN/A
3:20 PM63 °FBroken clouds.3 mph73%30.07 "HgN/A
2:50 PM63 °FBroken clouds.5 mph68%30.07 "HgN/A
2:20 PM64 °FBroken clouds.2 mph64%30.07 "HgN/A
Weather by CustomWeather, © 2015

See weather overviewHow to use our weather pages